Falls City, NE

8:41 AM CDT on July 24, 2016 (GMT -0500)
Brenner

Weather History for KFNB - December, 2012

Change the Weather History Date:

Sunday, December 9, 2012

  Actual Average Record
Temperature  
Mean Temperature 28 °F -  
Max Temperature 39 °F 41 °F 62 °F (1984)
Min Temperature 17 °F 21 °F -8 °F (2005)
Degree Days  
Heating Degree Days 37    
Moisture  
Dew Point 25 °F    
Average Humidity 76    
Maximum Humidity 100    
Minimum Humidity 51    
Precipitation  
Precipitation 0.00 in - - ()
Sea Level Pressure  
Sea Level Pressure 29.96 in    
Wind  
Wind Speed 7 mph (NW)    
Max Wind Speed 23 mph    
Max Gust Speed 33 mph    
Visibility 6 miles    
Events Rain    
Averages and records for this station are not official NWS values.
T = Trace of Precipitation, MM = Missing Value Source: NWS Daily Summary

Daily Weather History Graph

Daily Weather History Graph

Search for Another Location

Airport or City:

Trip Planner

Search our weather history database for the weather conditions in past years. The results will help you decide how hot, cold, wet, or windy it might be!

Date:

Astronomy

Dec. 09, 2012 Rise Set
Actual Time 7:33 AM CST 4:56 PM CST
Civil Twilight 7:02 AM CST 5:27 PM CST
Nautical Twilight 6:28 AM CST 6:01 PM CST
Astronomical Twilight 5:55 AM CST 6:34 PM CST
Moon 3:07 AM CST (12/9) 2:04 PM CST (12/9)
Length of Visible Light 10h 24m
Length of Day
9h 23m
Waning Crescent, 18% of the Moon is Illuminated
Dec 9
Waning Crescent
Dec 13
New
Dec 19
First Quarter
Dec 28
Full
Jan 4
Last Quarter

Hourly Weather History & Observations

Time (CST) Temp. Windchill Dew Point Humidity Pressure Visibility Wind Dir Wind Speed Gust Speed Precip Events Conditions
1:12 AM 37.4 °F 33.8 °F 35.6 °F 93% 29.87 in 6.0 mi ESE 4.6 mph - N/A   Overcast
1:53 AM 37.9 °F - 36.0 °F 93% 29.89 in 4.0 mi Calm Calm - N/A   Overcast
2:53 AM 37.9 °F - 36.0 °F 93% 29.88 in 3.0 mi Calm Calm - N/A   Overcast
3:49 AM 37.4 °F - 35.6 °F 93% 29.85 in 2.5 mi Calm Calm - N/A   Overcast
3:53 AM 37.9 °F - 36.0 °F 93% 29.86 in 2.5 mi Calm Calm - N/A   Overcast
4:01 AM 37.4 °F - 35.6 °F 93% 29.85 in 3.0 mi Calm Calm - N/A   Overcast
4:23 AM 37.4 °F 34.9 °F 35.6 °F 93% 29.83 in 2.5 mi East 3.5 mph - N/A   Overcast
4:53 AM 37.9 °F - 36.0 °F 93% 29.87 in 3.0 mi Calm Calm - N/A   Overcast
5:53 AM 37.4 °F - 35.6 °F 93% 29.87 in 3.0 mi Calm Calm - N/A   Overcast
6:42 AM 37.4 °F - 35.6 °F 93% 29.88 in 2.5 mi Calm Calm - N/A   Overcast
6:53 AM 37.9 °F - 36.0 °F 93% 29.91 in 2.5 mi Calm Calm - 0.00 in Rain Light Rain
7:04 AM 37.4 °F - 35.6 °F 93% 29.90 in 3.0 mi Calm Calm - 0.00 in Rain Light Rain
7:17 AM 37.4 °F - 37.4 °F 100% 29.88 in 2.5 mi Calm Calm - 0.00 in   Overcast
7:48 AM 37.4 °F - 35.6 °F 93% 29.89 in 2.5 mi Calm Calm - 0.00 in   Overcast
7:53 AM 37.9 °F - 36.0 °F 93% 29.91 in 2.5 mi Calm Calm - 0.00 in   Overcast
8:07 AM 37.4 °F - 35.6 °F 93% 29.88 in 2.0 mi Calm Calm - N/A   Overcast
8:13 AM 37.4 °F 34.9 °F 35.6 °F 93% 29.89 in 1.5 mi West 3.5 mph - N/A   Overcast
8:36 AM 37.4 °F 32.1 °F 37.4 °F 100% 29.89 in 2.0 mi West 6.9 mph - N/A   Overcast
8:48 AM 39.2 °F 32.5 °F 35.6 °F 87% 29.89 in 4.0 mi WNW 10.4 mph - N/A   Overcast
8:53 AM 39.0 °F 34.0 °F 35.1 °F 86% 29.91 in 5.0 mi NW 6.9 mph - N/A   Overcast
9:31 AM 39.2 °F 31.2 °F 30.2 °F 70% 29.92 in 10.0 mi NW 13.8 mph 23.0 mph N/A   Overcast
9:53 AM 37.0 °F 26.7 °F 28.9 °F 73% 29.96 in 10.0 mi NW 19.6 mph 28.8 mph N/A   Overcast
10:10 AM 37.4 °F 26.9 °F 26.6 °F 65% 29.94 in 10.0 mi NW 20.7 mph 27.6 mph N/A   Overcast
10:53 AM 36.0 °F 25.3 °F 24.1 °F 62% 29.98 in 10.0 mi NW 19.6 mph 28.8 mph N/A   Clear
11:53 AM 34.0 °F 23.4 °F 19.9 °F 56% 29.97 in 10.0 mi NW 17.3 mph 26.5 mph N/A   Clear
12:53 PM 30.0 °F 18.7 °F 16.0 °F 56% 30.00 in 10.0 mi WNW 16.1 mph 26.5 mph N/A   Clear
1:53 PM 28.9 °F 17.3 °F 12.9 °F 51% 30.01 in 10.0 mi NW 16.1 mph 27.6 mph N/A   Clear
2:53 PM 28.0 °F 15.7 °F 12.0 °F 51% 30.01 in 10.0 mi NW 17.3 mph 25.3 mph N/A   Clear
3:53 PM 28.0 °F 15.7 °F 12.0 °F 51% 30.04 in 10.0 mi NW 17.3 mph 24.2 mph N/A   Clear
4:48 PM 26.6 °F 13.4 °F 12.2 °F 55% 30.02 in 10.0 mi NW 18.4 mph 24.2 mph N/A   Mostly Cloudy
4:53 PM 25.0 °F 11.7 °F 10.9 °F 55% 30.05 in 10.0 mi NW 17.3 mph 24.2 mph N/A   Mostly Cloudy
5:53 PM 24.1 °F 9.8 °F 10.0 °F 55% 30.07 in 10.0 mi NW 19.6 mph 29.9 mph N/A   Overcast
6:28 PM 21.2 °F 6.8 °F 8.6 °F 58% 30.06 in 10.0 mi NW 17.3 mph 31.1 mph N/A   Overcast
6:53 PM 21.9 °F 7.8 °F 9.0 °F 58% 30.10 in 10.0 mi NW 17.3 mph 32.2 mph N/A   Overcast
7:53 PM 19.9 °F 6.2 °F 8.1 °F 60% 30.12 in 10.0 mi NW 15.0 mph 33.4 mph N/A   Overcast
8:53 PM 19.9 °F 4.3 °F 8.1 °F 60% 30.12 in 10.0 mi NW 19.6 mph 27.6 mph N/A   Overcast
9:53 PM 19.0 °F 3.2 °F 8.1 °F 62% 30.13 in 10.0 mi NW 19.6 mph 31.1 mph N/A   Overcast
10:53 PM 18.0 °F 1.3 °F 7.0 °F 62% 30.13 in 10.0 mi NW 20.7 mph 33.4 mph N/A   Overcast
11:22 PM 17.6 °F 0.1 °F 6.8 °F 63% 30.10 in 10.0 mi NW 23.0 mph 31.1 mph N/A   Overcast
11:53 PM 18.0 °F 3.6 °F 8.1 °F 65% 30.14 in 10.0 mi NW 15.0 mph 24.2 mph N/A   Overcast